Starlink 11466

operational
NORAD ID: 62220 Int'l Des: 2024-231 Owner: SPXS Country: US Constellation: starlink
LEOCIRCULAR

About Starlink 11466

Description loading...

Live Position

Loading 3D Globe...

Upcoming Passes

Altitude History

Altitude vs Time

uPlot chart will show altitude changes over time

Two-Line Element Set

1 62220U 24231C 25308.29044965 .00256088 00000-0 20345-2 0 9996
2 62220 53.1578 359.6223 0004704 157.1075 203.0154 15.69933386 53718
Epoch: Nov 4, 2025 • Age: 7 hours

Current Status

Altitude 370.7 km
Velocity 7.69 km/s
Sub-Earth Point -39.38°S, 39.2°W
Launch Date Dec 5, 2024
Age 0.9 years
Type internet

Technical Details

Classification Payload
Mass 960.00 kg
Dry Mass 910.00 kg
Total Mass 960.00 kg
Length 0.30 m
Diameter 4.10 m
Span 29.00 m
Shape Box + pan
Manufacturer SPXS
Bus Type Starlink V2MD
Phase Status In Orbit
Owner/State SPXS/US

Large Constellations

Loading constellations...